NOAA 16 DEB, 41133

Orbit data source: Space-Track

NOAA 16 DEB, 41133 is space debris in SSO originally from a launch on Thu, 21 Sep 2000 UTC launched from the Air Force Western Test Range (AFWTR). Debris objects in space refer to the collection of defunct objects orbiting the Earth. Examples of debris include non-operational satellites, rocket bodies, and fragments generated from explosions, collisions, or faulty payload assembly.

Loading next visibility...
Identifier
41133, 2000-055BQ
Orbit
SSO
Country
Flag of USUS
Related business
Manufacturer
Unknown
Mission
Spacecraft
Bus & Motor
Unknown
Mass
Unknown
Launch date (UTC)
2000-09-21 (26 years ago)
Launch vehicle
Unknown
Launch site
Air Force Western Test Range (AFWTR)
Object type
Payload
Rocket body
Debris
Shape & HBR
Unknown shape, 0.1 m
Radar Cross Section
Medium (>0.1 m² and <1 m²)

Expand to show TLE details & history
Last TLE update: 20 hours ago

TLE from 20 hours ago
0 NOAA 16 DEB
1 41133U 00055BQ  26264.48434386  .00013781  00000-0  22384-2 0  9993
2 41133  98.9255  91.2505 0012175   8.9900 351.1519 14.71211120560620
Epoch: 2026-09-21T11:37Z
TLE epoch observation values (Epoch: 2026-09-21T11:37:27.309Z)
Latitude
-0.00009°
Longitude
-83.47678°
Altitude
651.716 km
Speed
7.536 km/s
True Right ascension
06h 05m 00s
True Declination
0° 00' 00"
Sunlit
Object was in daylight at epoch
Visualization orbit readout
Latitude
Unknown
Longitude
Unknown
Altitude
Unknown
Speed
Unknown
Apparent Right ascension
Unknown
Apparent Declination
Unknown
Sunlit
N/A
Visualization observer readout
Local Sidereal Time
00:57:03
Azimuth
Unknown
Elevation
Unknown
Doppler factor
Unknown
Orbital elements
Apogee altitude
662.868 km
Perigee altitude
645.744 km
Semi-major axis
7,032.443 km
Eccentricity
0.00122
Inclination
98.9255°
RAAN
91.2505°
Arg. of periapsis
8.99°
True anomaly
351.13041°
Mean anomaly
351.1519°
Eccentric anomaly
351.14116°
Mean motion
3.68031 °/min
Orbital period
97.82 mins
BSTAR
0.0022384
Loading maneuver chart data...
Computing Atmospheric mass density...

Documentation

Showing up to 5 results
|